Overview Statistics Trail Chart Weather Telemetry Raw packets
 

This is the latest recevied weather packets stored in our database for station/object WE1C. If no packets are shown the sender has not sent any weather packets the latest 10 day(s).

<< 102 103 104 105 106 107 108 >>
Time Temp. Humidity Pressure Rain* Wind** Luminosity Snow
1787840588 23.89° C 86% 1047.2 hPa 0 mm - 222 W/m² -
1787840283 23.33° C 88% 1047 hPa 0 mm - 600 W/m² -
1787839982 22.78° C 90% 1046.8 hPa 0 mm - 584 W/m² -
1787839678 22.78° C 90% 1047 hPa 0 mm - 228 W/m² -
1787839378 22.78° C 90% 1047.1 hPa 0 mm - 237 W/m² -
1787839078 22.78° C 91% 1047 hPa 0 mm - 188 W/m² -
1787838776 22.78° C 91% 1047 hPa 0 mm - 695 W/m² -
1787838477 22.78° C 91% 1046.9 hPa 0 mm - 313 W/m² -
1787838170 22.78° C 90% 1047.1 hPa 0 mm - 248 W/m² -
1787837865 22.78° C 91% 1047 hPa 0 mm - 289 W/m² -
1787837559 22.22° C 92% 1046.9 hPa 0 mm - 388 W/m² -
1787837258 22.22° C 93% 1046.9 hPa 0 mm - 246 W/m² -
1787836959 22.22° C 94% 1046.8 hPa 0 mm - 204 W/m² -
1787836654 21.67° C 94% 1046.8 hPa 0 mm - 229 W/m² -
1787836353 21.11° C 97% 1046.9 hPa 0 mm - 215 W/m² -
1787836049 21.11° C 98% 1046.6 hPa 0 mm - 247 W/m² -
1787835744 20.56° C 99% 1046.8 hPa 0 mm - 149 W/m² -
1787835439 20.56° C 99% 1046.9 hPa 0 mm - 164 W/m² -
1787835134 20.56° C 99% 1046.9 hPa 0 mm - 150 W/m² -
1787834833 20.56° C 99% 1046.7 hPa 0 mm - 124 W/m² -
1787834529 20° C 99% 1046.9 hPa 0 mm - 184 W/m² -
1787834230 20° C 99% 1046.8 hPa 0 mm - 139 W/m² -
1787833919 20° C 99% 1046.7 hPa 0 mm - 126 W/m² -
1787833614 19.44° C 99% 1046.8 hPa 0 mm - 127 W/m² -
1787833310 19.44° C 99% 1046.9 hPa 0 mm - 108 W/m² -

* Rain latest hour (hover to see other rain measurements)
** Current wind speed in m/s (hover to see current wind gust speed)